1506913200.9,31031,14.44,74256.0,-2.09,-40.35,-40.53,0,*5B
1506913202.15,31032,14.44,74256.5,-2.11,-40.15,-40.53,0,*53
1506913203.38,31033,14.44,74254.8,-2.11,-40.73,-40.91,0,*5C
1506913204.6,31034,14.44,74258.3,-2.09,-40.53,-40.79,0,*56
1506913205.85,31035,14.44,74256.3,-2.09,-40.21,-40.41,0,*59
1506913207.13,31036,14.44,74256.5,-2.11,-39.97,-40.21,0,*56
1506913208.39,31037,14.44,74258.8,-2.09,-40.41,-40.59,0,*54
1506913209.67,31038,14.44,74252.8,-2.11,-40.59,-40.79,0,*59
1506913210.96,31039,14.44,74258.3,-2.11,-40.41,-40.59,0,*53
1506913212.24,31040,14.44,74252.8,-2.11,-40.21,-40.41,0,*52
1506913213.47,31041,14.44,74256.3,-2.09,-40.35,-40.59,0,*56
1506913214.7,31042,14.44,74252.3,-2.09,-40.35,-40.59,0,*55
1506913215.96,31043,14.44,74256.5,-2.11,-40.35,-40.59,0,*5D
1506913217.17,31044,14.44,74258.8,-2.09,-40.35,-40.53,0,*59
1506913218.42,31045,14.44,74258.5,-2.11,-40.21,-40.53,0,*54
1506913219.7,31046,14.44,74262.3,-2.11,-40.21,-40.41,0,*54
1506913220.93,31047,14.44,74260.8,-2.11,-40.03,-40.35,0,*56
1506913222.16,31048,14.44,74260.8,-2.11,-40.35,-40.53,0,*5C
1506913223.41,31049,14.44,74260.0,-2.09,-40.21,-40.41,0,*52
1506913224.68,31050,14.44,74256.8,-2.11,-40.15,-40.41,0,*54
1506913225.92,31051,14.44,74262.5,-2.09,-40.15,-40.41,0,*5C
1506913227.18,31052,14.44,74260.8,-2.11,-39.97,-40.35,0,*51
1506913228.41,31053,14.44,74254.3,-2.09,-40.35,-40.41,0,*5C
1506913229.64,31054,14.44,74258.3,-2.09,-39.79,-40.03,0,*5B
1506913230.9,31055,14.44,74256.3,-2.11,-39.71,-39.85,0,*5B
1506913232.16,31056,14.44,74258.8,-2.11,-39.85,-40.21,0,*53
1506913233.39,31057,14.44,74258.5,-2.09,-40.21,-40.53,0,*5E
1506913234.63,31058,14.44,74254.8,-2.09,-40.15,-40.41,0,*55
1506913235.86,31059,14.44,74256.3,-2.11,-40.03,-40.35,0,*59
1506913237.1,31060,14.44,74258.3,-2.09,-39.79,-40.03,0,*5C
1506913238.35,31061,14.44,74258.3,-2.11,-39.97,-40.15,0,*53
1506913239.57,31062,14.44,74258.5,-2.09,-40.15,-40.53,0,*5F
1506913240.83,31063,14.44,74258.5,-2.11,-39.85,-40.21,0,*55
1506913242.04,31064,14.44,74254.3,-2.09,-40.15,-40.53,0,*59
1506913243.25,31065,14.44,74256.8,-2.09,-40.35,-40.53,0,*5A
1506913244.47,31066,14.44,74258.5,-2.09,-40.15,-40.53,0,*5B
1506913245.67,31067,14.44,74254.8,-2.09,-40.35,-40.53,0,*58
1506913246.92,31068,14.44,74256.3,-2.09,-39.97,-40.21,0,*54
1506913248.16,31069,14.44,74254.5,-2.09,-39.85,-40.21,0,*56
1506913249.38,31070,14.44,74252.5,-2.09,-40.21,-40.53,0,*5B
1506913250.61,31071,14.44,74258.0,-2.09,-39.97,-40.35,0,*59
1506913251.85,31072,14.44,74260.8,-2.09,-39.79,-40.03,0,*5F
1506913253.08,31073,14.44,74262.5,-2.09,-40.03,-40.41,0,*5B
1506913254.31,31074,14.44,74266.8,-2.09,-39.79,-40.03,0,*59
1506913255.54,31075,14.44,74262.0,-2.09,-39.97,-40.35,0,*5D
1506913256.77,31076,14.44,74260.3,-2.09,-40.03,-40.21,0,*58
1506913258.02,31077,14.44,74262.5,-2.09,-40.21,-40.59,0,*56
1506913259.25,31078,14.44,74260.5,-2.09,-40.59,-40.73,0,*5E
1506913260.5,31079,14.44,74264.3,-2.09,-40.59,-40.79,0,*55
1506913261.71,31080,14.44,74260.3,-2.09,-40.73,-40.91,0,*5D
1506913262.94,31081,14.44,74262.5,-2.09,-40.35,-40.59,0,*5A
1506913264.17,31082,14.44,74260.3,-2.09,-40.41,-40.73,0,*52
1506913265.42,31083,14.44,74262.5,-2.11,-40.53,-40.79,0,*53
1506913266.65,31084,14.38,74258.3,-2.09,-40.35,-40.59,0,*5F
1506913267.9,31085,14.44,74262.3,-2.09,-40.21,-40.41,0,*52
1506913269.16,31086,14.44,74258.3,-2.11,-40.35,-40.59,0,*54
1506913270.45,31087,14.44,74258.8,-2.11,-40.41,-40.59,0,*56
1506913271.68,31088,14.44,74258.0,-2.09,-40.35,-40.59,0,*53
1506913272.91,31089,14.38,74254.0,-2.11,-40.03,-40.35,0,*54
1506913274.14,31090,14.44,74260.5,-2.09,-40.03,-40.21,0,*50
1506913275.42,31091,14.44,74256.3,-2.11,-39.97,-40.21,0,*5B
1506913276.68,31092,14.44,74262.0,-2.11,-39.79,-39.85,0,*58
1506913277.92,31093,14.44,74260.5,-2.11,-39.85,-40.15,0,*5D
1506913279.19,31094,14.44,74264.5,-2.11,-39.79,-40.15,0,*59
1506913280.45,31095,14.44,74266.3,-2.11,-39.85,-40.21,0,*5C
1506913281.68,31096,14.44,74266.0,-2.11,-40.03,-40.35,0,*5A
1506913282.93,31097,14.38,74262.8,-2.11,-40.35,-40.59,0,*54
1506913284.13,31098,14.44,74266.0,-2.09,-40.53,-40.73,0,*5A
1506913285.37,31099,14.44,74266.5,-2.09,-40.41,-40.73,0,*58
1506913286.59,31100,14.44,74260.5,-2.09,-40.21,-40.73,0,*5F
1506913287.83,31101,14.44,74256.5,-2.11,-40.15,-40.35,0,*52
1506913289.1,31102,14.44,74256.3,-2.11,-40.15,-40.41,0,*52
1506913290.34,31103,14.44,74258.5,-2.11,-40.15,-40.35,0,*50
1506913291.6,31104,14.38,74254.3,-2.11,-40.41,-40.73,0,*54
1506913292.88,31105,14.44,74256.3,-2.11,-40.21,-40.59,0,*5B
1506913294.13,31106,14.44,74258.8,-2.11,-40.21,-40.53,0,*52
1506913295.36,31107,14.44,74256.0,-2.11,-40.03,-40.35,0,*53
1506913296.59,31108,14.44,74254.8,-2.11,-40.03,-40.35,0,*5C
1506913297.84,31109,14.44,74258.0,-2.11,-39.97,-40.35,0,*5E
1506913299.12,31110,14.44,74258.5,-2.11,-39.97,-40.21,0,*53
1506913300.38,31111,14.38,74258.8,-2.11,-39.85,-40.21,0,*51
1506913301.61,31112,14.44,74264.0,-2.09,-39.79,-40.03,0,*58
1506913302.85,31113,14.44,74260.0,-2.11,-39.85,-40.03,0,*53
1506913304.08,31114,14.44,74260.8,-2.09,-39.97,-40.15,0,*59
1506913305.33,31115,14.38,74262.8,-2.11,-39.97,-40.15,0,*51
1506913306.57,31116,14.38,74256.3,-2.11,-40.15,-40.35,0,*54
1506913307.81,31117,14.38,74258.0,-2.09,-40.15,-40.41,0,*5F
1506913309.05,31118,14.44,74258.8,-2.09,-39.79,-40.15,0,*55
1506913310.28,31119,14.44,74260.3,-2.09,-39.53,-39.85,0,*5B
1506913311.54,31120,14.44,74262.0,-2.09,-39.71,-39.79,0,*52
1506913312.77,31121,14.44,74258.8,-2.09,-39.79,-40.03,0,*58
1506913314.03,31122,14.44,74262.8,-2.11,-39.97,-40.15,0,*55
1506913315.28,31123,14.38,74258.3,-2.09,-39.97,-40.21,0,*5A
1506913316.51,31124,14.44,74258.8,-2.09,-39.97,-40.35,0,*58
1506913317.75,31125,14.44,74256.5,-2.09,-40.15,-40.41,0,*5E
1506913318.97,31126,14.38,74258.0,-2.09,-40.15,-40.53,0,*5E
1506913320.22,31127,14.44,74260.0,-2.09,-39.97,-40.21,0,*5E
1506913321.42,31128,14.44,74260.0,-2.09,-40.03,-40.35,0,*57
1506913322.67,31129,14.38,74262.0,-2.09,-39.97,-40.21,0,*50
1506913323.9,31130,14.38,74258.3,-2.09,-40.21,-40.53,0,*5E
1506913325.15,31131,14.44,74264.3,-2.09,-39.97,-40.21,0,*59
1506913326.39,31132,14.38,74258.5,-2.09,-39.79,-40.03,0,*5A
1506913327.64,31133,14.38,74262.8,-2.09,-39.97,-40.21,0,*5B
1506913328.89,31134,14.44,74266.5,-2.09,-39.97,-40.21,0,*5C
1506913330.12,31135,14.38,74256.0,-2.09,-40.21,-40.53,0,*5B
1506913331.35,31136,14.38,74260.0,-2.09,-40.59,-40.73,0,*55
1506913332.61,31137,14.38,74258.0,-2.09,-40.41,-40.59,0,*55
1506913333.81,31138,14.38,74260.5,-2.09,-40.35,-40.73,0,*51
1506913335.07,31139,14.38,74262.8,-2.09,-40.41,-40.59,0,*5B
1506913336.33,31140,14.44,74262.0,-2.09,-40.41,-40.59,0,*55
1506913337.57,31141,14.44,74266.3,-2.11,-40.73,-40.91,0,*58
1506913338.83,31142,14.38,74260.8,-2.11,-40.79,-41.03,0,*5B
1506913340.06,31143,14.38,74264.0,-2.11,-40.73,-40.91,0,*5A
1506913341.32,31144,14.44,74264.0,-2.11,-40.79,-40.91,0,*57
1506913342.56,31145,14.38,74258.5,-2.11,-40.73,-40.91,0,*5C
1506913343.84,31146,14.38,74256.3,-2.13,-40.59,-40.85,0,*50
1506913345.12,31147,14.38,74256.3,-2.13,-40.59,-40.79,0,*52
1506913346.32,31148,14.44,74258.0,-2.15,-40.35,-40.73,0,*5B
1506913347.57,31149,14.38,74256.0,-2.13,-40.21,-40.47,0,*5E
1506913348.86,31150,14.38,74258.0,-2.13,-40.09,-40.41,0,*5A
1506913350.14,31151,14.38,74260.0,-2.13,-40.21,-40.59,0,*58
1506913351.37,31152,14.38,74256.3,-2.15,-40.29,-40.53,0,*5F
1506913352.65,31153,14.38,74254.3,-2.13,-40.29,-40.59,0,*52
1506913353.92,31154,14.44,74260.3,-2.13,-40.59,-40.79,0,*50
1506913355.2,31155,14.44,74262.3,-2.13,-40.59,-40.79,0,*51
1506913356.43,31156,14.38,74258.3,-2.15,-40.53,-40.85,0,*5D
1506913357.66,31157,14.44,74260.0,-2.13,-40.47,-40.65,0,*51
1506913358.91,31158,14.38,74256.3,-2.13,-40.21,-40.47,0,*5E
1506913360.19,31159,14.44,74260.3,-2.13,-40.29,-40.59,0,*58
1506913361.42,31160,14.44,74260.5,-2.15,-40.53,-40.85,0,*58
1506913362.66,31161,14.38,74260.0,-2.15,-40.73,-40.85,0,*5B
1506913363.89,31162,14.38,74258.5,-2.15,-40.29,-40.53,0,*5C
1506913365.11,31163,14.38,74256.0,-2.15,-40.15,-40.47,0,*57
1506913366.33,31164,14.38,74256.0,-2.15,-40.29,-40.47,0,*5F
1506913367.58,31165,14.44,74262.5,-2.13,-40.29,-40.47,0,*58
1506913368.8,31166,14.44,74260.8,-2.15,-40.15,-40.47,0,*52
1506913370.05,31167,14.38,74258.3,-2.13,-40.03,-40.29,0,*5A
1506913371.27,31168,14.44,74260.3,-2.15,-40.15,-40.35,0,*59
1506913372.49,31169,14.38,74260.8,-2.15,-40.15,-40.47,0,*5D
1506913373.72,31170,14.44,74262.0,-2.15,-40.29,-40.53,0,*5F
1506913375.01,31171,14.38,74262.0,-2.13,-40.41,-40.59,0,*5C
1506913376.24,31172,14.38,74262.0,-2.15,-40.53,-40.85,0,*5B
1506913377.47,31173,14.38,74260.8,-2.15,-40.29,-40.65,0,*59
1506913378.68,31174,14.38,74262.0,-2.15,-40.35,-40.65,0,*53
1506913379.91,31175,14.38,74260.0,-2.15,-40.65,-40.85,0,*59
1506913381.11,31176,14.38,74258.3,-2.15,-40.53,-40.73,0,*56
1506913382.32,31177,14.38,74258.5,-2.15,-40.35,-40.65,0,*50
1506913383.52,31178,14.38,74260.8,-2.15,-40.65,-40.65,0,*5A
1506913384.76,31179,14.44,74260.0,-2.13,-40.65,-40.79,0,*50
1506913385.99,31180,14.38,74258.8,-2.17,-40.65,-40.91,0,*54
1506913387.2,31181,14.38,74260.3,-2.19,-40.73,-40.91,0,*5C
1506913388.43,31182,14.44,74266.3,-2.19,-40.41,-40.73,0,*52
1506913389.66,31183,14.38,74260.0,-2.17,-40.53,-40.91,0,*52
1506913390.89,31184,14.44,74266.3,-2.17,-40.47,-40.53,0,*5E
1506913392.13,31185,14.38,74264.3,-2.17,-40.15,-40.47,0,*5D
1506913393.36,31186,14.38,74258.8,-2.19,-40.35,-40.59,0,*5D
1506913394.58,31187,14.38,74262.0,-2.19,-40.21,-40.53,0,*53
1506913395.83,31188,14.38,74258.0,-2.17,-40.65,-40.85,0,*59
1506913397.09,31189,14.38,74262.3,-2.17,-40.65,-40.85,0,*58
1506913398.31,31190,14.44,74264.3,-2.17,-40.53,-40.73,0,*5C
1506913399.54,31191,14.38,74260.5,-2.17,-40.47,-40.65,0,*5F
1506913400.76,31192,14.44,74262.0,-2.19,-40.53,-40.79,0,*5A
1506913402.0,31193,14.38,74258.0,-2.17,-40.21,-40.47,0,*5D
1506913403.24,31194,14.38,74258.3,-2.19,-40.41,-40.73,0,*55
1506913404.47,31195,14.44,74256.8,-2.19,-40.59,-40.91,0,*51
1506913405.7,31196,14.38,74260.3,-2.17,-40.47,-40.73,0,*5F
1506913406.93,31197,14.44,74260.8,-2.19,-40.35,-40.59,0,*5D
1506913408.16,31198,14.38,74258.5,-2.17,-40.15,-40.47,0,*51
1506913409.37,31199,14.44,74262.5,-2.19,-40.35,-40.73,0,*5B
1506913410.62,31200,14.38,74260.3,-2.17,-40.29,-40.65,0,*5C
1506913411.81,31201,14.38,74256.5,-2.19,-40.53,-40.73,0,*59
1506913413.01,31202,14.38,74256.0,-2.19,-40.53,-40.73,0,*5A
1506913414.26,31203,14.44,74256.3,-2.19,-40.41,-40.79,0,*52
1506913415.49,31204,14.38,74256.3,-2.19,-39.97,-40.35,0,*58
1506913416.71,31205,14.38,74260.8,-2.19,-39.97,-40.03,0,*5C
1506913417.94,31206,14.44,74256.3,-2.19,-40.03,-40.41,0,*5A
1506913419.2,31207,14.38,74254.5,-2.17,-40.09,-40.35,0,*5C
1506913420.45,31208,14.44,74256.0,-2.17,-40.29,-40.53,0,*51
1506913421.7,31209,14.38,74258.5,-2.19,-40.21,-40.41,0,*55
1506913422.95,31210,14.44,74256.5,-2.19,-39.97,-40.29,0,*50
1506913424.19,31211,14.44,74260.5,-2.17,-40.15,-40.47,0,*53
1506913425.44,31212,14.38,74256.0,-2.19,-39.97,-40.21,0,*5A
1506913426.69,31213,14.38,74258.3,-2.17,-39.97,-40.35,0,*50
1506913427.94,31214,14.44,74258.8,-2.17,-39.97,-40.35,0,*57
1506913429.17,31215,14.38,74254.0,-2.19,-40.03,-40.21,0,*5E
1506913430.42,31216,14.38,74254.5,-2.17,-40.03,-40.21,0,*53
1506913431.62,31217,14.38,74256.0,-2.19,-40.53,-40.73,0,*5E
1506913432.84,31218,14.38,74258.3,-2.17,-40.53,-40.73,0,*5F
1506913434.07,31219,14.44,74258.5,-2.19,-40.03,-40.21,0,*52
1506913435.29,31220,14.44,74260.0,-2.19,-40.21,-40.35,0,*5D
1506913436.54,31221,14.44,74258.0,-2.19,-40.21,-40.41,0,*5F
1506913437.77,31222,14.44,74262.3,-2.19,-40.35,-40.59,0,*50
1506913439.0,31223,14.44,74260.8,-2.17,-40.47,-40.65,0,*55
1506913440.2,31224,14.38,74258.5,-2.19,-40.35,-40.73,0,*5E
1506913441.43,31225,14.38,74256.3,-2.19,-40.21,-40.53,0,*58
1506913442.65,31226,14.38,74256.8,-2.17,-40.53,-40.65,0,*55
1506913443.9,31227,14.44,74260.8,-2.19,-40.59,-40.79,0,*5D
1506913445.13,31228,14.38,74256.3,-2.19,-40.73,-40.97,0,*5A
1506913446.36,31229,14.38,74256.3,-2.19,-40.59,-40.91,0,*55
1506913447.59,31230,14.38,74258.8,-2.19,-40.35,-40.59,0,*53
1506913448.82,31231,14.38,74256.0,-2.19,-40.21,-40.53,0,*5D
1506913450.02,31232,14.38,74258.8,-2.19,-40.03,-40.35,0,*5E
1506913451.22,31233,14.38,74266.3,-2.19,-40.03,-40.35,0,*5F
1506913452.45,31234,14.38,74264.3,-2.19,-40.59,-40.73,0,*55
1506913453.68,31235,14.38,74260.3,-2.19,-40.35,-40.59,0,*56
1506913454.93,31236,14.38,74260.8,-2.21,-40.21,-40.53,0,*51
1506913456.16,31237,14.38,74252.5,-2.19,-40.35,-40.59,0,*54
1506913457.4,31238,14.44,74258.0,-2.19,-40.15,-40.41,0,*50
1506913458.64,31239,14.44,74260.3,-2.19,-40.03,-40.41,0,*56
1506913459.89,31240,14.44,74258.8,-2.19,-39.97,-40.21,0,*5D
1506913461.14,31241,14.44,74258.0,-2.17,-40.29,-40.53,0,*5C
1506913462.34,31242,14.38,74262.3,-2.19,-40.35,-40.73,0,*5E
1506913463.57,31243,14.38,74258.8,-2.19,-40.03,-40.59,0,*52
1506913464.81,31244,14.44,74254.0,-2.19,-40.03,-40.41,0,*5C
1506913466.01,31245,14.38,74258.3,-2.19,-40.03,-40.35,0,*5E
1506913467.2,31246,14.38,74258.5,-2.19,-40.53,-40.73,0,*5A
1506913468.43,31247,14.38,74258.5,-2.19,-40.35,-40.59,0,*53
1506913469.65,31248,14.38,74258.0,-2.19,-40.15,-40.53,0,*54
1506913470.87,31249,14.38,74260.0,-2.19,-40.53,-40.79,0,*5F
1506913472.12,31250,14.38,74258.3,-2.19,-40.21,-40.41,0,*59
1506913473.38,31251,14.38,74256.3,-2.21,-39.97,-40.15,0,*51
1506913474.65,31252,14.44,74258.8,-2.17,-39.97,-40.29,0,*58
1506913475.9,31253,14.44,74254.5,-2.19,-40.21,-40.59,0,*53
1506913477.14,31254,14.44,74256.8,-2.19,-40.41,-40.73,0,*5A
1506913478.37,31255,14.44,74252.3,-2.19,-40.35,-40.59,0,*50
1506913479.6,31256,14.38,74256.0,-2.19,-40.35,-40.59,0,*53
1506913480.8,31257,14.38,74256.3,-2.19,-40.35,-40.53,0,*58
1506913482.03,31258,14.38,74260.0,-2.19,-40.03,-40.29,0,*5F
1506913483.23,31259,14.38,74258.3,-2.19,-40.03,-40.35,0,*53
1506913484.43,31260,14.38,74258.0,-2.19,-40.03,-40.35,0,*59
1506913485.63,31261,14.38,74258.5,-2.19,-40.35,-40.73,0,*5F
1506913486.89,31262,14.38,74254.8,-2.19,-39.97,-40.41,0,*5B
1506913488.13,31263,14.38,74262.8,-2.19,-40.15,-40.41,0,*5E
1506913489.35,31264,14.38,74258.8,-2.19,-40.21,-40.53,0,*5D
1506913490.59,31265,14.38,74258.5,-2.19,-40.41,-40.73,0,*58
1506913491.78,31266,14.38,74258.5,-2.19,-40.53,-40.73,0,*58
1506913493.04,31267,14.38,74262.0,-2.21,-40.79,-40.91,0,*56
1506913494.3,31268,14.38,74258.5,-2.21,-40.53,-40.59,0,*55
1506913495.55,31269,14.38,74262.0,-2.21,-40.21,-40.53,0,*5B
1506913496.83,31270,14.38,74258.5,-2.21,-40.21,-40.59,0,*59
1506913498.06,31271,14.44,74266.3,-2.23,-40.29,-40.47,0,*5D
1506913499.31,31272,14.38,74260.8,-2.21,-40.53,-40.79,0,*5C
1506913500.56,31273,14.44,74260.0,-2.21,-40.79,-41.17,0,*5C
1506913501.83,31274,14.44,74258.8,-2.21,-40.41,-40.91,0,*5F
1506913503.09,31275,14.38,74256.8,-2.21,-40.35,-40.41,0,*50
1506913504.36,31276,14.38,74260.8,-2.21,-40.41,-40.53,0,*53
1506913505.62,31277,14.38,74256.0,-2.21,-40.41,-40.73,0,*50
1506913506.89,31278,14.44,74264.5,-2.23,-40.59,-40.97,0,*5E
1506913508.15,31279,14.38,74258.0,-2.23,-40.79,-40.85,0,*5E
1506913509.38,31280,14.44,74264.8,-2.21,-40.53,-40.91,0,*57
1506913510.62,31281,14.38,74260.5,-2.23,-40.85,-41.03,0,*55
1506913511.88,31282,14.38,74266.3,-2.23,-40.41,-40.79,0,*52
1506913513.14,31283,14.38,74260.8,-2.23,-40.21,-40.59,0,*57
1506913514.4,31284,14.38,74266.0,-2.23,-40.29,-40.59,0,*58
1506913515.66,31285,14.44,74264.5,-2.23,-40.21,-40.41,0,*58
1506913516.89,31286,14.38,74266.3,-2.23,-40.09,-40.47,0,*57
1506913518.12,31287,14.38,74264.0,-2.23,-40.29,-40.47,0,*54
1506913519.36,31288,14.38,74264.5,-2.23,-40.41,-40.65,0,*55
1506913520.6,31289,14.38,74264.3,-2.23,-39.79,-40.03,0,*51
1506913521.84,31290,14.38,74264.8,-2.21,-39.91,-39.91,0,*58
1506913523.08,31291,14.38,74260.5,-2.21,-39.91,-40.03,0,*5C
1506913524.37,31292,14.44,74262.5,-2.21,-39.79,-40.09,0,*53
1506913525.61,31293,14.38,74260.8,-2.21,-39.91,-40.15,0,*59
1506913526.91,31294,14.38,74252.0,-2.21,-39.79,-39.97,0,*5C
1506913528.18,31295,14.38,74258.0,-2.21,-39.79,-39.91,0,*5B
1506913529.41,31296,14.38,74256.3,-2.23,-40.03,-40.29,0,*54
1506913530.68,31297,14.38,74258.8,-2.21,-40.15,-40.41,0,*5E
1506913531.92,31298,14.38,74262.3,-2.23,-40.09,-40.47,0,*58
1506913533.15,31299,14.38,74256.3,-2.21,-40.35,-40.53,0,*51
1506913534.43,31300,14.38,74260.5,-2.21,-39.97,-40.21,0,*53
1506913535.69,31301,14.38,74260.5,-2.21,-40.03,-40.41,0,*57
1506913536.98,31302,14.38,74262.0,-2.21,-40.41,-40.59,0,*5B
1506913538.25,31303,14.38,74260.5,-2.21,-40.35,-40.59,0,*59
1506913539.52,31304,14.38,74262.5,-2.21,-40.15,-40.41,0,*55
1506913540.77,31305,14.38,74260.3,-2.21,-40.21,-40.53,0,*50
1506913542.03,31306,14.38,74260.0,-2.21,-40.41,-40.73,0,*57
1506913543.29,31307,14.38,74258.3,-2.21,-40.53,-40.59,0,*5D
1506913544.54,31308,14.38,74264.0,-2.21,-40.73,-40.79,0,*52
1506913545.8,31309,14.38,74260.5,-2.21,-40.41,-40.73,0,*58
1506913547.09,31310,14.38,74260.5,-2.21,-40.41,-40.79,0,*5A
1506913548.32,31311,14.38,74262.8,-2.23,-40.29,-40.65,0,*5A
1506913549.55,31312,14.38,74264.0,-2.23,-40.65,-40.85,0,*5F
1506913550.84,31313,14.38,74266.5,-2.21,-40.41,-40.59,0,*5B
1506913552.08,31314,14.38,74264.3,-2.23,-40.65,-40.97,0,*5A
1506913553.31,31315,14.38,74262.5,-2.23,-40.65,-40.85,0,*58
1506913554.52,31316,14.38,74262.5,-2.23,-40.47,-40.65,0,*55
1506913555.76,31317,14.38,74262.5,-2.23,-40.03,-40.41,0,*52
1506913556.99,31318,14.38,74262.5,-2.23,-40.29,-40.47,0,*53
1506913558.21,31319,14.38,74260.8,-2.21,-40.53,-40.73,0,*5A
1506913559.47,31320,14.38,74262.0,-2.27,-40.79,-40.97,0,*54
1506913560.7,31321,14.38,74262.0,-2.27,-40.65,-40.79,0,*58
1506913561.93,31322,14.38,74258.3,-2.27,-40.29,-40.47,0,*5E
1506913563.19,31323,14.38,74260.5,-2.27,-40.41,-40.79,0,*5C
1506913564.42,31324,14.38,74262.3,-2.23,-40.21,-40.47,0,*54
1506913565.65,31325,14.44,74264.8,-2.27,-40.47,-40.79,0,*5C
1506913566.88,31326,14.38,74264.3,-2.27,-40.59,-40.65,0,*5D
1506913568.13,31327,14.38,74264.0,-2.27,-40.29,-40.79,0,*56
1506913569.34,31328,14.38,74262.0,-2.27,-40.47,-40.73,0,*5B
1506913570.6,31329,14.38,74260.3,-2.27,-40.29,-40.59,0,*5A
1506913571.84,31330,14.38,74260.5,-2.27,-40.41,-40.65,0,*53
1506913573.07,31331,14.38,74260.8,-2.27,-40.29,-40.47,0,*5C
1506913574.34,31332,14.38,74260.5,-2.27,-40.09,-40.41,0,*5B
1506913575.59,31333,14.38,74262.0,-2.27,-39.97,-40.09,0,*5F
1506913576.83,31334,14.38,74256.8,-2.27,-40.03,-40.29,0,*59
1506913578.06,31335,14.38,74256.0,-2.27,-40.09,-40.47,0,*5A
1506913579.3,31336,14.38,74258.8,-2.27,-40.03,-40.29,0,*5B
1506913580.56,31337,14.38,74258.3,-2.27,-40.09,-40.29,0,*50
1506913581.79,31338,14.38,74256.5,-2.27,-40.29,-40.47,0,*55
1506913583.03,31339,14.38,74258.3,-2.23,-40.03,-40.21,0,*58
1506913584.29,31340,14.38,74252.0,-2.23,-40.29,-40.59,0,*51
1506913585.51,31341,14.38,74254.3,-2.23,-40.21,-40.65,0,*57
1506913586.77,31342,14.38,74252.3,-2.23,-40.21,-40.59,0,*5B
1506913588.03,31343,14.38,74248.5,-2.23,-40.21,-40.41,0,*53
1506913589.26,31344,14.38,74248.0,-2.23,-40.47,-40.79,0,*5F
1506913590.49,31345,14.38,74250.8,-2.27,-40.21,-40.47,0,*57
1506913591.74,31346,14.38,74250.0,-2.27,-39.97,-40.21,0,*57
1506913592.97,31347,14.38,74254.3,-2.23,-39.97,-40.03,0,*52
1506913594.24,31348,14.38,74252.0,-2.23,-40.09,-40.41,0,*52
1506913595.5,31349,14.44,74256.0,-2.23,-40.21,-40.41,0,*59
1506913596.76,31350,14.38,74254.5,-2.23,-40.09,-40.29,0,*55
1506913598.02,31351,14.44,74252.0,-2.23,-40.21,-40.59,0,*59
1506913599.25,31352,14.38,74252.0,-2.23,-40.03,-40.29,0,*5D
1506913600.47,31353,14.38,74252.3,-2.23,-39.91,-40.03,0,*51
1506913601.73,31354,14.44,74260.5,-2.23,-39.97,-40.29,0,*58
1506913602.96,31355,14.38,74256.0,-2.21,-39.91,-40.03,0,*55
1506913604.2,31356,14.38,74254.5,-2.21,-39.91,-40.15,0,*51
1506913605.44,31357,14.38,74256.5,-2.23,-40.03,-40.29,0,*58
1506913606.69,31358,14.44,74264.3,-2.21,-39.97,-40.15,0,*59
1506913607.95,31359,14.38,74254.0,-2.21,-39.97,-40.15,0,*58
1506913609.21,31360,14.38,74254.8,-2.21,-39.97,-40.15,0,*52
1506913610.46,31361,14.38,74258.8,-2.23,-39.97,-40.21,0,*56
1506913611.73,31362,14.38,74260.8,-2.21,-40.03,-40.41,0,*52
1506913612.95,31363,14.38,74262.3,-2.23,-40.21,-40.47,0,*57
1506913614.21,31364,14.38,74256.0,-2.21,-40.35,-40.59,0,*58
1506913615.49,31365,14.38,74260.8,-2.21,-39.97,-39.97,0,*53
1506913616.73,31366,14.44,74262.5,-2.21,-40.03,-40.15,0,*57
1506913617.96,31367,14.38,74262.8,-2.23,-40.03,-40.29,0,*5B
1506913619.2,31368,14.38,74262.3,-2.21,-39.91,-40.15,0,*5C
1506913620.43,31369,14.38,74262.8,-2.23,-40.29,-40.47,0,*55
1506913621.7,31370,14.38,74266.5,-2.23,-40.41,-40.59,0,*5C
1506913622.93,31371,14.38,74266.0,-2.21,-40.03,-40.35,0,*53
1506913624.2,31372,14.38,74266.3,-2.21,-40.15,-40.41,0,*54
1506913625.46,31373,14.38,74266.3,-2.23,-40.21,-40.41,0,*50
1506913626.71,31374,14.38,74264.0,-2.21,-39.97,-40.03,0,*50
1506913627.94,31375,14.38,74264.5,-2.23,-40.03,-40.29,0,*58
1506913629.2,31376,14.38,74262.8,-2.21,-40.21,-40.53,0,*54
1506913630.48,31377,14.38,74260.3,-2.21,-40.21,-40.59,0,*5F
1506913631.75,31378,14.38,74262.3,-2.23,-40.41,-40.85,0,*55
1506913633.0,31379,14.38,74260.0,-2.21,-40.53,-40.79,0,*56
1506913634.24,31380,14.38,74256.8,-2.23,-40.47,-40.85,0,*54
1506913635.51,31381,14.38,74258.0,-2.21,-40.15,-40.59,0,*51
1506913636.76,31382,14.38,74252.3,-2.23,-40.21,-40.41,0,*5E
1506913638.0,31383,14.38,74254.8,-2.23,-40.29,-40.65,0,*51
1506913639.23,31384,14.38,74254.8,-2.23,-40.35,-40.59,0,*54
1506913640.5,31385,14.38,74256.0,-2.23,-40.41,-40.59,0,*56
1506913641.78,31386,14.38,74256.3,-2.21,-40.21,-40.59,0,*51
1506913643.04,31387,14.38,74256.8,-2.23,-40.59,-40.79,0,*5F
1506913644.32,31388,14.38,74256.0,-2.21,-40.59,-40.79,0,*52
1506913645.6,31389,14.38,74258.0,-2.21,-40.41,-40.79,0,*5A
1506913646.83,31390,14.38,74256.5,-2.23,-40.65,-40.85,0,*55
1506913648.09,31391,14.44,74256.0,-2.27,-40.29,-40.59,0,*59
1506913649.36,31392,14.38,74256.5,-2.27,-40.41,-40.59,0,*54
1506913650.59,31393,14.38,74256.3,-2.23,-40.65,-40.85,0,*56
1506913651.82,31394,14.38,74258.3,-2.27,-40.47,-40.79,0,*56
1506913653.05,31395,14.38,74254.3,-2.27,-40.29,-40.47,0,*52
1506913654.29,31396,14.38,74254.8,-2.27,-40.03,-40.21,0,*59
1506913655.52,31397,14.38,74252.3,-2.27,-40.03,-40.21,0,*58
1506913656.75,31398,14.38,74254.8,-2.27,-40.03,-40.29,0,*5F
1506913657.99,31399,14.38,74254.8,-2.21,-40.35,-40.73,0,*52
1506913659.22,31400,14.38,74256.8,-2.23,-40.47,-40.79,0,*58
1506913660.47,31401,14.38,74260.8,-2.23,-40.59,-40.79,0,*56
1506913661.73,31402,14.38,74256.5,-2.23,-40.29,-40.41,0,*59
1506913662.96,31403,14.38,74260.0,-2.27,-40.21,-40.47,0,*52
1506913664.23,31404,14.38,74262.8,-2.27,-40.09,-40.41,0,*59
1506913665.46,31405,14.38,74256.0,-2.23,-40.47,-40.79,0,*5D
1506913666.72,31406,14.38,74258.0,-2.23,-40.59,-40.85,0,*52
1506913667.93,31407,14.38,74260.8,-2.27,-40.47,-40.73,0,*51
1506913669.14,31408,14.44,74262.3,-2.27,-40.47,-40.73,0,*5E
1506913670.4,31409,14.38,74262.3,-2.29,-40.53,-40.85,0,*5D
1506913671.66,31410,14.38,74260.3,-2.27,-40.59,-40.85,0,*51
1506913672.89,31411,14.38,74260.0,-2.29,-40.35,-40.65,0,*5A
1506913674.15,31412,14.38,74264.5,-2.29,-40.29,-40.53,0,*51
1506913675.38,31413,14.38,74260.0,-2.29,-40.47,-40.73,0,*5A
1506913676.64,31414,14.38,74258.3,-2.29,-40.73,-40.85,0,*53
1506913677.87,31415,14.38,74262.3,-2.27,-40.47,-40.79,0,*58
1506913679.1,31416,14.38,74262.8,-2.27,-40.21,-40.47,0,*56
1506913680.33,31417,14.38,74262.0,-2.29,-40.47,-40.65,0,*59
1506913681.59,31418,14.38,74266.8,-2.29,-40.53,-40.85,0,*5D
1506913682.83,31419,14.38,74264.0,-2.29,-40.15,-40.53,0,*55
1506913684.07,31420,14.44,74264.8,-2.29,-40.35,-40.53,0,*5D
1506913685.33,31421,14.38,74262.3,-2.29,-40.47,-40.85,0,*52
1506913686.59,31422,14.44,74266.5,-2.29,-40.53,-40.85,0,*54
1506913687.85,31423,14.38,74260.0,-2.29,-40.73,-40.85,0,*57
1506913689.1,31424,14.38,74258.3,-2.29,-40.53,-40.85,0,*52
1506913690.36,31425,14.38,74258.0,-2.29,-40.29,-40.53,0,*55
1506913691.59,31426,14.38,74254.8,-2.29,-40.35,-40.53,0,*5B
1506913692.82,31427,14.44,74260.5,-2.29,-40.35,-40.65,0,*5F
1506913694.06,31428,14.38,74256.8,-2.29,-40.35,-40.53,0,*55
1506913695.31,31429,14.38,74258.3,-2.29,-40.29,-40.65,0,*5C
1506913696.55,31430,14.44,74258.0,-2.29,-40.15,-40.47,0,*5B